Location: Possagno
(45.8500°N, 11.8667°E)
Time: 04:01:49
(UTC+00:00)

CZ-4B R/B - Pass Details

Date: 07 June 2020
Orbit: 703 x 802 km, 98.8° (Epoch: 07 July)

Event Time Altitude Azimuth Distance (km) Brightness Sun altitude
Rises 00:53:40 0° 17° (NNE) 3,302 8.5 -17.5°
Reaches altitude 10° 00:56:02 10° 21° (NNE) 2,376 7.4 -17.4°
Maximum altitude 01:01:15 60° 101° (ESE) 914 3.9 -17.0°
Enters shadow 01:04:34 22° 176° (S) 1,671 4.8 -16.7°
